Flag for Senegal Weather past 2 weeks in Thiès, Senegal

Now
81 °F

Passing clouds.


Feels Like: 85 °F
Forecast: 76 / 88 °F
Wind: 7 mph from Southwest

Location: Dakar / Yoff

Current Time: Jul 23, 2014 at 8:30:14 AM

Latest Report: Jul 23, 2014 at 6:00 AM


Visibility: N/A

Pressure: 29.92 "Hg

Humidity: 79%

Dew point: 73 °F

Location of ThièsLocation

Historic Weather in Thiès — Graph

°F

Thiès temperature yesterday

Maximum temperature yesterday: 86 °F (at 1:00 PM)
Minimum temperature yesterday: 79 °F (at 12:00 AM)
Average temperature yesterday: 81 °F

Past Weeks' High & Low Weather Summary

 TemperatureHumidityPressure
High88 °F (Jul 10, 3:30 PM)89% (Jul 13, 1:00 AM)30.07 "Hg (Jul 13, 1:00 AM)
Low77 °F (Jul 9, 2:00 AM)52% (Jul 20, 3:00 PM)29.80 "Hg (Jul 14, 5:00 PM)
Average81 °F76%29.94 "Hg
* Reported Jul 8 6:00 AM — Jul 23 6:00 AM, Thiès, Weather by CustomWeather, © 2014

Note: Actual official high and low records may vary slightly from our data, if they occured in-between our weather recording intervals... More about our weather records

Advertising

Thiès weather history for previous 24 hours

 ConditionsComfort  
Time TempWeatherWind HumidityBarometerVisibility
6:00 AM
Jul 23
81 °FPassing clouds.7 mph79%29.92 "HgN/A
5:30 AM79 °FPassing clouds.6 mph84%29.92 "HgN/A
5:00 AM79 °FPassing clouds.6 mph84%29.89 "HgN/A
4:30 AM79 °FPassing clouds.6 mph84%29.89 "HgN/A
4:00 AM81 °FPassing clouds.2 mph79%29.89 "HgN/A
3:30 AM81 °FPassing clouds.6 mph74%29.89 "HgN/A
3:00 AM81 °FPassing clouds.6 mph79%29.92 "HgN/A
2:30 AM81 °FPassing clouds.6 mph74%29.92 "HgN/A
2:00 AM81 °FPassing clouds.5 mph74%29.95 "HgN/A
1:30 AM81 °FPassing clouds.3 mph74%29.95 "HgN/A
1:00 AM81 °FPassing clouds.6 mph79%29.95 "HgN/A
12:30 AM81 °FPassing clouds.7 mph74%29.95 "HgN/A
12:00 AM81 °FPassing clouds.7 mph79%29.98 "HgN/A
5:00 PM
Jul 22
84 °FScattered clouds.10 mph66%29.86 "HgN/A
4:30 PM84 °FScattered clouds.9 mph66%29.86 "HgN/A
4:00 PM84 °FScattered clouds.9 mph66%29.89 "HgN/A
3:30 PM84 °FScattered clouds.9 mph66%29.89 "HgN/A
3:00 PM84 °FScattered clouds.10 mph66%29.89 "HgN/A
2:30 PM86 °FPartly sunny.9 mph62%29.89 "HgN/A
2:00 PM86 °FPartly sunny.10 mph62%29.89 "HgN/A
1:30 PM84 °FPartly sunny.10 mph66%29.89 "HgN/A
1:00 PM86 °FPartly sunny.10 mph62%29.89 "HgN/A
12:30 PM84 °FPartly sunny.9 mph66%29.92 "HgN/A
12:00 PM84 °FPartly sunny.9 mph66%29.92 "HgN/A
11:30 AM84 °FPartly sunny.10 mph66%29.92 "HgN/A
11:00 AM84 °FPartly sunny.9 mph66%29.92 "HgN/A
10:30 AM82 °FPartly sunny.6 mph70%29.92 "HgN/A
10:00 AM82 °FPartly sunny.6 mph70%29.92 "HgN/A
9:30 AM82 °FPartly sunny.7 mph70%29.92 "HgN/A
9:00 AM81 °FPartly sunny.7 mph74%29.92 "HgN/A
8:30 AM81 °FPartly sunny.6 mph74%29.92 "HgN/A
8:00 AM81 °FPartly sunny.5 mph74%29.92 "HgN/A
Weather by CustomWeather, © 2014

See weather overviewHow to use our weather pages